Theta_e
296 297 297 297 298 298 300 301 302 303 305 306 307 307 308 309 308 308 301 301 302 291 290 290 291 286 286 286 283 284 283 282 279 275 272 270 266 267 267 268 271 269 268 266 265 266 265 280 282 280 283 284 284 284
295 295 296 297 297 297 298 299 300 302 303 305 305 306 307 309 309 309 300 301 300 294 288 291 290 290 291 293 288 285 285 282 284 278 274 271 266 265 265 266 272 270 273 269 272 272 279 283 284 285 284 285 285 284
294 294 295 296 296 296 297 298 299 300 302 303 303 305 306 308 309 308 303 298 294 287 287 288 287 290 291 292 294 286 285 286 284 284 279 274 271 273 267 268 270 273 275 273 272 277 278 279 284 284 285 286 286 285
293 293 294 294 295 295 296 297 298 298 300 300 301 303 304 305 308 308 300 299 298 290 288 286 289 288 291 291 291 291 288 287 285 285 280 273 271 278 273 275 273 274 276 273 273 276 275 279 280 283 284 286 285 285
292 293 293 294 294 295 295 296 297 298 298 299 299 301 301 302 307 308 305 301 301 295 285 283 285 285 288 290 289 289 288 286 285 281 278 274 277 276 274 273 270 276 276 275 277 279 280 280 280 281 281 283 286 286
292 292 293 293 293 294 295 295 296 297 297 297 298 299 301 300 305 305 294 298 300 295 285 282 283 284 286 289 288 287 287 285 285 283 281 280 276 276 269 268 277 279 280 280 284 279 279 277 273 276 280 281 282 284
292 292 292 293 293 293 294 295 296 296 296 296 297 298 300 300 301 299 289 295 300 296 286 278 278 283 285 285 284 284 285 283 284 282 279 278 278 277 264 275 278 280 282 282 279 277 278 274 280 277 277 272 275 278
292 292 292 293 293 293 293 294 295 295 296 296 296 297 297 299 302 298 296 302 302 290 287 279 274 279 285 281 280 284 281 282 281 282 275 276 276 272 270 275 281 285 285 282 282 281 284 273 270 271 267 266 271 276
291 292 292 292 292 293 293 294 294 295 296 295 295 295 295 294 287 289 300 302 293 290 284 279 275 273 284 281 281 281 284 279 278 278 277 276 267 271 278 278 280 282 283 285 280 281 278 276 281 274 269 265 273 277
291 291 292 292 292 292 293 293 294 295 295 294 290 286 285 287 300 298 288 286 285 285 283 273 271 276 281 279 279 279 282 278 275 276 274 273 272 281 279 280 280 283 285 277 275 275 269 271 278 280 274 279 278 281
292 291 292 292 292 292 292 293 294 295 293 285 284 284 287 300 290 286 282 283 282 279 280 272 271 278 280 275 276 280 278 277 275 274 275 267 269 273 283 286 287 286 280 279 284 285 277 277 278 277 276 276 278 279
291 291 291 292 292 292 293 293 294 289 285 285 286 286 285 286 285 281 279 281 280 275 274 274 276 278 279 282 278 278 276 275 274 273 271 269 274 278 274 277 278 276 276 282 282 282 283 278 279 276 279 278 277 278
291 291 291 292 292 292 292 294 293 292 291 286 283 280 280 281 277 276 275 276 274 274 275 278 277 279 279 281 276 273 274 273 275 269 268 273 274 273 273 272 274 273 268 268 271 270 271 277 273 276 279 275 273 275
290 291 291 291 292 292 293 292 293 291 284 280 277 274 276 276 277 277 273 275 271 275 278 282 275 277 277 274 272 272 272 272 265 263 268 270 275 278 267 266 269 273 274 267 266 266 267 269 272 272 275 274 272 275
290 291 291 291 291 291 291 291 292 288 283 277 279 275 276 269 264 265 266 273 272 284 282 272 272 274 275 274 272 266 264 265 267 268 271 273 266 266 267 266 266 267 268 268 266 264 264 265 264 267 267 270 270 271
290 290 286 290 290 289 289 289 286 284 281 279 280 276 271 268 263 265 264 277 284 284 278 274 270 268 266 269 265 267 266 265 272 271 271 267 264 262 261 261 263 264 264 265 265 266 262 261 261 263 261 261 265 269
290 280 289 290 289 289 290 283 281 279 277 278 277 277 272 265 268 270 280 282 286 284 279 270 270 270 269 262 264 266 268 273 268 266 263 262 260 260 257 258 260 262 261 264 263 265 265 262 257 259 263 263 259 259
276 282 290 290 287 283 280 277 277 278 275 278 275 277 274 266 268 274 280 285 285 284 273 273 271 267 269 270 268 268 262 260 261 262 262 258 256 256 257 258 258 259 259 260 261 263 266 268 267 265 264 263 262 261
279 284 289 290 283 274 273 278 279 274 277 265 266 269 271 275 272 275 282 286 277 274 275 268 270 269 269 258 257 254 254 254 258 258 257 255 256 255 258 258 259 258 258 258 258 261 261 263 265 265 264 263 264 262
288 289 289 289 286 276 276 279 282 277 275 272 267 269 269 275 281 282 281 270 271 268 260 258 253 250 253 253 253 252 252 254 252 257 258 258 257 256 258 257 259 258 258 260 261 262 262 263 265 263 263 263 264 263
283 282 288 287 281 278 275 273 276 278 277 275 275 272 278 282 281 278 268 264 257 251 252 252 251 253 253 254 253 252 254 253 253 253 254 255 256 255 256 258 258 259 258 259 260 262 262 261 264 264 261 261 261 261
274 279 273 273 277 276 274 273 270 275 276 275 274 275 278 277 272 264 263 254 252 249 249 251 252 253 254 255 254 253 253 251 251 253 255 255 254 255 255 257 255 256 259 260 259 260 261 263 262 262 262 261 262 263
270 269 265 263 271 272 271 271 271 271 273 271 272 270 268 267 264 262 251 251 251 252 251 251 252 253 254 255 254 254 253 252 253 252 252 252 253 253 253 254 253 254 255 258 260 261 261 265 265 263 262 261 261 260
263 254 256 256 255 263 262 263 265 266 267 267 267 266 264 264 264 255 247 247 249 251 251 252 253 255 255 254 253 252 254 253 252 251 253 253 253 256 254 253 253 254 256 257 259 262 262 263 264 263 263 262 262 262
261 249 251 250 253 254 258 258 258 262 260 260 264 263 259 258 258 251 249 248 249 250 250 251 252 253 251 249 250 251 251 251 252 251 254 253 251 253 255 254 254 256 258 258 258 259 262 262 263 263 265 264 263 264
248 247 247 246 249 251 248 249 248 249 254 256 252 252 255 261 255 247 247 248 248 249 250 250 250 251 250 251 250 251 252 254 253 251 251 253 253 252 253 254 254 255 258 258 258 259 260 262 264 264 264 264 266 265
247 246 249 251 249 250 250 250 250 249 247 246 246 249 258 256 249 246 249 250 250 251 252 252 251 251 250 251 252 251 253 254 253 253 255 255 255 255 254 254 254 255 258 257 257 259 259 260 261 262 262 263 263 262
248 248 246 248 248 249 248 247 246 245 246 247 249 246 250 247 247 249 250 252 251 251 252 253 253 251 250 251 251 251 251 253 254 255 256 256 256 256 256 257 257 261 258 258 258 261 261 260 260 261 260 260 261 263
248 248 249 249 250 248 246 246 246 248 248 247 248 247 246 248 249 249 250 251 251 251 251 251 251 252 252 252 252 252 252 252 253 253 252 252 253 254 256 256 256 257 257 256 260 263 262 259 260 261 261 261 261 261
246 246 248 247 248 246 247 248 248 249 250 249 249 249 249 249 250 251 250 250 250 249 250 250 251 251 249 250 250 251 252 252 251 250 249 250 251 254 255 255 256 256 256 256 257 258 264 261 262 260 260 259 259 258
243 245 246 246 246 246 247 247 246 246 247 247 247 248 248 248 249 250 250 249 249 250 250 250 250 250 250 249 249 248 249 251 251 251 252 253 254 255 256 256 256 256 256 257 258 258 257 257 257 257 256 256 256 256
241 240 243 243 242 242 241 241 241 242 242 242 241 242 245 246 244 246 246 245 246 247 247 247 248 249 249 250 250 251 252 251 251 251 252 254 256 256 255 256 256 256 257 257 257 257 257 256 255 255 254 254 254 254
238 237 236 238 240 240 239 239 240 240 240 240 241 239 240 242 244 246 244 243 244 244 243 244 243 243 245 247 247 249 251 251 252 256 257 259 259 258 256 256 256 256 256 256 256 256 255 254 254 253 253 252 252 252
Wind_Speed
16 19 18 17 15 13 15 14 13 10 11 11 12 12 11 33 37 20 4 9 6 3 5 7 9 9 5 6 7 7 5 1 2 3 4 5 4 7 3 3 8 9 10 6 3 2 10 8 6 8 7 2 3 6
19 19 18 19 15 14 15 14 15 14 10 11 12 14 15 16 37 30 5 7 3 3 0 1 2 1 3 11 9 9 1 6 8 4 1 4 2 1 4 4 1 5 10 9 13 11 3 12 6 8 2 3 4 5
19 21 21 19 18 16 15 15 13 14 14 11 10 12 9 15 30 31 8 7 6 4 1 2 4 3 2 3 3 9 3 5 4 1 5 2 4 5 6 8 3 6 5 4 3 6 16 10 12 8 6 9 5 5
19 21 19 21 19 20 17 15 17 15 13 8 11 8 8 11 16 34 8 7 7 4 3 2 1 4 2 5 3 3 7 7 5 3 2 3 3 4 4 3 5 6 10 6 8 10 5 13 14 18 12 10 7 6
21 21 21 21 20 21 20 19 15 17 14 12 8 7 10 14 15 19 8 10 9 8 5 3 1 1 1 7 9 9 13 7 3 4 3 5 2 3 1 2 5 8 10 9 11 11 5 6 6 7 14 15 17 13
24 23 23 22 22 21 21 20 17 19 14 11 9 11 12 14 12 11 7 4 8 6 6 4 1 1 3 8 9 10 7 4 3 4 3 3 2 3 4 6 7 13 11 8 14 7 7 3 3 3 8 12 11 14
25 25 22 23 23 22 23 22 20 17 15 10 13 14 14 14 8 11 6 8 19 5 6 4 5 3 7 5 3 2 2 2 2 3 3 2 1 2 2 16 3 8 17 16 9 5 7 6 9 9 9 2 3 6
27 27 26 24 23 22 22 23 20 20 20 14 11 10 10 17 13 9 4 27 21 7 4 6 3 4 4 3 4 2 3 2 2 3 2 3 2 2 9 6 13 24 22 16 18 18 23 3 1 5 3 3 4 8
28 27 26 25 25 24 23 22 21 20 19 12 5 7 4 6 5 4 21 26 4 4 9 5 10 7 6 3 3 2 2 3 2 2 3 4 2 12 11 11 14 14 16 18 9 13 9 12 16 7 7 4 7 10
29 28 26 26 24 22 21 21 21 20 18 9 3 2 5 5 30 23 4 2 3 2 2 4 3 6 6 3 3 4 3 4 4 4 3 5 10 10 9 12 10 16 17 8 4 4 2 8 16 17 15 11 13 13
30 29 27 24 25 22 21 22 21 22 13 2 4 5 4 24 5 4 6 8 6 4 2 4 5 11 1 5 5 2 4 4 4 3 5 4 10 7 17 24 29 23 7 11 14 12 7 8 8 10 10 13 12 13
31 28 25 24 22 21 20 17 24 9 5 5 3 3 4 3 4 7 6 4 7 10 5 6 5 6 4 4 5 3 4 3 5 4 2 7 8 12 1 5 7 6 5 10 13 19 16 12 12 9 10 11 12 13
26 24 23 21 21 21 19 22 20 14 11 2 3 6 5 6 8 11 11 5 7 8 9 10 8 6 4 3 4 4 6 4 8 2 8 12 5 5 7 5 4 3 3 4 6 5 4 8 5 9 13 7 4 8
18 19 20 18 18 16 18 17 21 12 4 3 8 8 7 7 7 7 6 9 5 10 16 15 7 6 3 4 5 7 3 5 3 4 14 5 10 7 1 2 0 3 3 4 5 4 8 8 7 6 9 6 6 9
16 18 20 19 18 18 18 17 19 3 2 5 5 8 7 3 3 5 3 6 2 15 16 8 5 5 3 6 3 6 3 7 11 11 7 6 4 4 3 1 2 4 3 4 4 4 4 8 6 5 5 6 6 5
16 18 10 21 19 16 14 9 4 2 2 5 6 4 2 4 1 3 3 8 12 16 6 4 7 6 3 8 6 11 11 11 9 8 4 3 3 2 1 3 4 5 4 4 3 4 5 5 5 6 4 3 5 5
20 4 19 19 16 14 16 5 2 3 4 7 7 3 5 3 3 4 10 11 15 15 11 6 9 9 7 4 5 7 10 7 4 2 2 3 2 3 1 2 3 7 4 5 3 4 6 5 2 2 5 4 4 4
3 6 22 21 13 6 3 3 2 5 12 9 2 3 2 2 3 4 4 12 13 8 5 7 9 6 9 12 6 6 2 1 2 3 4 1 1 3 2 2 3 5 3 3 2 4 4 4 4 2 3 3 2 1
6 7 19 20 9 5 4 4 4 5 5 3 1 1 3 2 2 2 4 15 3 3 8 3 7 6 5 1 2 1 1 2 3 1 0 3 2 3 5 4 4 2 2 2 3 3 3 3 3 3 3 2 2 1
15 16 16 15 10 3 4 5 5 5 4 4 2 3 4 3 5 6 8 5 5 5 10 7 2 1 1 1 1 2 1 0 2 2 0 2 2 3 4 3 4 5 3 5 3 3 3 3 2 3 2 2 2 1
12 6 6 9 2 2 2 3 4 4 3 3 2 2 3 5 8 7 4 3 9 7 4 2 2 2 2 1 1 1 2 2 1 1 3 1 3 2 3 4 5 4 4 3 4 4 4 3 3 3 2 3 2 2
4 10 4 6 4 4 2 2 4 5 1 2 3 4 3 4 4 4 2 10 6 2 2 3 3 3 3 3 3 4 4 3 2 1 3 2 2 3 4 4 4 4 4 3 2 3 4 3 3 2 2 2 3 3
8 6 5 6 1 2 3 3 4 4 3 2 2 4 4 4 3 3 8 5 4 2 3 2 4 3 2 3 4 4 5 5 3 4 3 2 1 1 1 2 3 3 3 3 3 2 3 5 4 2 1 3 3 3
11 10 9 6 6 2 6 5 4 4 4 4 3 4 3 3 2 6 7 3 2 3 5 7 5 2 2 4 5 4 6 4 3 2 3 3 2 3 3 3 2 2 2 4 4 4 4 4 5 4 4 3 1 2
10 11 7 8 5 5 5 5 8 5 4 5 3 3 3 4 5 6 3 1 2 4 6 6 6 5 3 3 3 4 4 3 3 3 5 4 2 3 3 2 2 4 6 6 7 7 6 4 3 3 4 2 3 3
11 5 6 5 5 6 5 4 5 4 4 4 5 4 4 3 7 5 3 3 3 3 5 5 4 4 3 3 3 4 5 6 3 2 3 4 4 3 2 3 3 3 6 5 5 6 7 6 5 6 4 6 6 5
7 5 2 2 3 3 3 3 2 5 6 7 6 8 4 6 5 1 1 2 2 2 4 4 3 3 3 4 3 2 4 4 2 1 1 3 3 3 3 3 4 4 6 6 4 4 5 5 3 4 4 5 5 3
4 3 6 8 4 5 5 6 8 8 6 5 3 9 5 5 3 2 2 3 3 5 4 3 1 2 1 2 3 5 4 5 4 2 0 0 1 3 5 4 4 9 6 5 5 5 4 3 3 3 3 3 4 5
6 7 3 4 4 6 7 5 4 2 2 2 3 4 3 2 2 2 2 4 4 3 4 4 4 4 3 2 2 3 4 6 4 4 3 2 3 3 6 6 5 5 5 6 10 9 2 2 2 3 5 5 5 6
4 4 3 5 8 9 5 4 2 3 3 3 2 2 2 1 0 1 2 3 3 3 3 3 3 4 3 3 3 3 4 4 5 4 2 3 3 6 5 5 5 5 5 5 6 6 5 5 4 4 5 5 5 6
4 4 5 6 5 2 2 3 3 3 3 3 3 3 2 0 2 2 2 2 2 2 2 2 2 3 3 4 4 4 3 2 6 5 4 4 4 5 4 5 4 4 5 5 4 3 2 4 4 5 7 8 8 7
5 5 3 4 1 4 4 3 1 2 4 3 4 3 3 2 2 3 2 2 3 3 4 3 2 2 3 3 2 1 4 5 5 6 7 6 6 3 3 4 4 4 4 4 4 3 5 5 5 6 7 9 9 9
2 2 3 4 3 4 4 3 5 3 4 3 3 1 2 3 2 4 3 1 3 4 3 3 4 3 4 4 3 3 5 4 7 9 10 10 8 7 4 3 3 3 4 4 5 5 7 8 8 9 9 9 9 9
Wind_Direction
231 245 251 241 224 220 249 258 231 242 227 214 222 221 246 196 191 188 160 190 194 142 190 201 152 138 122 155 149 153 103 204 85 163 155 209 158 213 123 187 178 168 157 194 146 213 288 159 91 182 212 190 181 177
228 229 241 241 230 234 232 258 250 234 249 227 238 230 231 235 195 190 184 177 109 100 281 25 75 337 124 169 129 181 180 164 170 135 171 100 152 104 165 239 33 242 189 181 194 212 258 204 200 214 161 224 204 179
229 235 235 235 239 235 241 240 259 242 224 230 253 245 255 234 204 193 173 137 96 126 52 147 198 179 86 114 123 130 219 196 180 86 144 158 200 138 173 231 185 236 183 220 57 256 229 230 251 253 214 210 197 217
236 234 233 236 235 241 232 244 242 247 238 216 257 256 275 270 235 201 165 167 130 107 183 202 288 117 127 139 109 73 115 79 87 70 105 156 181 175 215 193 173 189 140 183 265 278 274 253 235 241 227 219 229 202
238 236 236 236 237 234 234 231 240 245 241 222 270 290 283 308 230 201 190 177 175 154 148 147 96 67 122 158 139 142 133 121 134 140 155 227 159 129 246 44 230 190 179 182 226 215 183 222 204 203 212 213 219 208
238 237 234 233 236 237 234 231 221 244 237 237 244 260 268 320 259 186 208 204 181 116 110 150 63 139 135 141 137 143 116 96 132 152 192 238 266 147 191 235 227 203 204 203 245 194 212 227 275 210 199 221 213 200
236 235 237 235 233 231 233 230 217 235 226 231 249 246 262 302 259 203 188 167 140 111 108 124 160 162 133 124 99 91 71 125 132 141 195 224 209 169 193 248 202 239 231 231 231 108 287 191 232 204 206 229 191 212
233 230 229 232 229 231 232 230 223 217 231 231 257 260 289 315 283 221 155 157 148 115 145 136 109 134 179 125 124 146 122 149 193 141 119 195 112 143 257 249 218 234 233 228 230 208 236 141 68 219 154 138 189 213
232 231 230 230 224 222 223 226 226 215 227 223 273 288 290 221 206 174 150 159 64 205 145 148 144 181 161 125 114 123 155 148 55 198 226 128 209 227 220 206 222 222 216 226 238 216 230 225 244 214 185 206 216 234
228 223 221 228 224 223 223 222 222 205 205 139 137 123 223 225 112 105 10 160 94 315 81 120 108 138 144 141 128 119 183 156 172 215 116 208 252 245 212 224 242 236 234 144 129 255 234 255 227 235 216 221 220 233
218 218 218 217 218 217 220 218 202 201 148 145 168 216 263 127 105 164 167 174 154 158 141 140 136 128 198 129 133 223 158 145 197 185 188 250 264 233 221 225 234 242 210 207 228 243 200 203 203 217 229 222 223 226
203 208 210 210 210 212 199 219 208 156 152 170 121 287 263 147 170 164 186 137 164 178 156 133 144 125 154 132 111 177 128 120 211 137 134 260 248 242 48 257 272 260 250 239 215 235 238 225 220 204 220 223 213 218
193 198 201 201 203 200 193 209 165 139 118 81 99 251 198 192 167 170 173 165 141 174 163 153 141 128 117 95 94 128 152 164 123 131 227 236 253 231 231 248 285 321 312 282 287 299 281 266 202 210 238 236 214 211
179 186 186 188 190 185 198 177 162 135 106 199 193 246 218 178 173 183 190 147 195 137 149 145 116 119 127 102 149 121 86 128 143 218 232 238 221 237 181 231 189 283 328 326 298 305 294 277 264 236 236 231 201 220
178 172 160 151 151 169 181 183 162 92 129 248 222 239 212 264 58 132 164 112 121 143 140 108 77 102 131 114 93 110 99 207 206 225 228 228 196 164 155 304 287 300 317 289 280 272 282 282 266 263 245 232 218 222
178 168 167 164 163 164 161 146 95 115 211 265 253 283 304 74 305 104 164 133 150 150 126 70 115 101 163 129 137 205 157 210 225 216 213 150 136 110 24 312 304 278 260 260 266 302 284 281 288 285 305 292 252 234
169 164 173 169 167 178 135 92 100 209 241 228 240 182 209 265 173 166 157 152 154 154 164 129 113 181 112 113 207 189 205 216 192 166 107 63 103 267 285 306 334 301 333 334 336 277 272 282 284 355 337 325 312 271
117 161 159 167 167 89 27 110 166 245 212 238 198 245 241 189 146 132 144 156 164 171 131 170 124 148 175 171 221 217 164 182 22 56 77 69 14 304 274 324 304 267 299 310 310 310 301 334 347 344 297 307 308 16
166 153 169 174 145 109 126 200 162 261 249 222 127 148 245 222 261 87 129 160 59 159 118 55 119 173 200 192 153 289 37 89 158 166 132 274 14 349 329 335 295 327 347 356 10 330 302 298 317 320 326 328 292 214
157 173 181 182 142 112 243 204 167 226 255 224 116 186 183 179 136 127 113 30 37 38 36 35 63 276 13 295 267 207 231 192 103 107 160 299 356 359 2 346 315 310 2 8 21 357 335 349 11 352 336 271 261 357
80 3 220 183 80 169 271 304 241 193 173 194 158 188 90 134 131 134 75 357 60 34 49 5 19 302 287 350 19 327 359 26 222 170 149 337 326 349 352 345 348 351 26 11 35 350 354 341 329 332 293 296 336 43
43 30 75 13 192 157 244 220 273 297 69 63 51 7 78 97 81 46 76 56 60 22 348 323 327 311 353 15 6 20 320 324 295 7 17 326 17 14 16 355 1 358 0 1 352 338 316 305 291 302 42 351 1 45
30 36 53 17 198 179 204 342 259 345 77 69 50 59 35 59 66 103 74 65 74 351 284 293 297 286 334 357 31 21 16 15 21 31 5 335 33 48 60 12 21 13 350 334 334 318 315 334 343 349 310 44 34 19
36 45 29 33 360 306 320 351 349 31 34 37 68 90 41 49 102 58 74 61 319 310 358 352 347 9 4 29 29 9 7 340 346 4 9 13 32 19 38 21 345 326 317 298 328 336 330 359 351 356 2 34 50 101
70 4 7 353 9 333 12 9 1 39 60 350 53 58 14 318 73 58 73 67 342 14 9 355 9 17 24 337 323 339 337 7 337 339 9 12 335 351 22 26 20 25 5 3 360 345 347 344 6 5 12 13 47 57
68 347 20 333 335 18 356 56 27 354 353 51 32 314 299 49 60 48 22 349 347 9 5 343 321 335 23 360 314 347 348 334 316 57 342 11 23 45 4 15 348 337 2 356 346 345 343 345 8 22 15 14 39 66
58 331 348 107 310 281 90 82 37 57 53 15 347 335 350 67 67 59 337 42 337 319 296 287 308 358 303 312 313 321 310 319 340 299 326 20 24 27 38 24 351 310 326 324 318 321 329 345 337 22 26 23 16 23
109 61 18 335 20 3 63 46 30 16 355 349 291 25 58 28 61 5 353 356 316 295 300 315 350 292 324 351 337 328 318 314 282 246 323 136 78 48 14 351 336 337 328 314 309 308 297 316 5 31 48 53 37 26
22 345 303 35 85 66 47 41 40 40 353 318 15 50 64 51 6 325 328 327 320 338 2 4 356 351 19 4 344 346 350 357 17 70 62 15 349 355 354 344 335 336 334 327 322 328 321 98 71 69 66 62 51 49
339 333 42 35 39 35 17 7 6 342 1 34 57 96 79 46 334 346 342 350 5 2 351 11 1 17 13 354 337 4 24 26 28 30 28 17 326 305 314 324 333 334 328 323 320 320 0 29 52 54 68 67 62 67
328 351 54 37 68 15 335 327 333 6 11 42 28 76 101 262 319 336 344 344 338 358 29 22 44 22 22 25 20 2 347 2 353 338 328 290 295 302 319 326 323 320 317 314 323 341 30 57 68 77 77 75 71 72
18 37 79 85 224 295 12 33 356 60 352 43 0 17 15 37 12 291 283 57 32 21 352 343 349 336 329 326 342 325 308 303 315 316 312 314 313 318 325 327 327 327 337 356 6 23 56 69 74 78 79 78 76 76
78 104 130 113 48 19 344 28 28 28 35 44 352 275 226 163 132 264 304 157 175 203 237 256 253 259 275 288 282 300 326 304 313 335 326 327 345 18 356 339 341 1 26 38 42 56 67 78 80 80 80 81 80 78